Regional Weather Roundup
Issued by NWS

Home | Current Version | Previous Version | Text Only | Print | Product List | Glossary Off
Versions: 1 2 3 4 5 6 7 8 9 10 11 12 13 14 15 16 17 18 19 20 21 22 23 24 25 26 27 28 29 30 31 32 33 34 35 36 37 38 39 40 41 42 43 44 45 46 47 48 49 50

000
ASUS43 KTOP 280959
RWRKS

WEATHER ROUNDUP FOR KANSAS
NATIONAL WEATHER SERVICE GOODLAND KS
400 AM CST SUN DEC 28 2014

NOTE:  "FAIR" INDICATES FEW OR NO CLOUDS BELOW 12,000 FEET WITH NO
SIGNIFICANT WEATHER AND/OR OBSTRUCTIONS TO VISIBILITY.

KSZ001>006-013>018-027>032-041>047-281100-
NORTHWEST KANSAS

CITY           SKY/WX    TMP DP  RH WIND       PRES   REMARKS
GOODLAND       CLEAR     17  10  74 SW10      30.06F WCI   5
HAYS           CLEAR     14   3  62 CALM      30.17F
HILL CITY      CLEAR     12   6  77 W7        30.15F
RUSSELL        CLEAR     14  11  87 SW8       30.16F
$$

KSZ061>065-074>080-084>089-281100-
SOUTHWEST KANSAS

CITY           SKY/WX    TMP DP  RH WIND       PRES   REMARKS
DODGE CITY     CLEAR     14   9  80 SW7       30.16F
ELKHART          N/A     18   9  68 SW8         N/A
GARDEN CITY    CLEAR     16  12  84 SW3       30.13F
GREAT BEND     CLEAR     16   9  73 SW5       30.20F
LIBERAL        CLEAR     16   9  73 S5        30.15F
$$

KSZ066>073-081>083-090>101-281100-
SOUTHEAST KANSAS

CITY           SKY/WX    TMP DP  RH WIND       PRES   REMARKS
CHANUTE        PTCLDY    21  18  88 CALM      30.25F
COFFEYVILLE    PTCLDY    22  18  85 N5        30.26F
HUTCHINSON     CLEAR     14   9  80 CALM      30.23F
MEDICINE LODGE   N/A     14  11  87 N3        30.22F
NEWTON         CLEAR     18  10  73 SW6       30.22F
PARSONS        PTCLDY    20  17  88 N3        30.26F
WICHITA INTL   CLEAR     19  14  81 W3        30.23F
WICHITA JABRA  CLEAR     19  15  84 W5        30.23F
WINFIELD       PTCLDY    21  18  88 CALM      30.25F
$$

KSZ007>012-019>026-033>040-048>060-102>105-281100-
NORTHEAST KANSAS

CITY           SKY/WX    TMP DP  RH WIND       PRES   REMARKS
CONCORDIA      CLEAR     19  15  84 CALM      30.18F
EMPORIA        CLEAR     15  12  88 SW5       30.23F
LAWRENCE       CLEAR     14  12  92 NW3       30.25F
MANHATTAN      CLEAR     18  15  88 W3        30.23F
OLATHE IND     PTCLDY    18  15  88 CALM      30.23F
OLATHE EXE     FAIR      20  18  92 W5        30.22F
SALINA         CLEAR     18  13  80 S5        30.23F
TOPEKA BILLARD CLEAR     15  11  83 CALM      30.24F
TOPEKA FORBES  CLEAR     17  12  80 SW3       30.22F
$$


USA.gov is the U.S. government's official web portal to all federal, state and local government web resources and services.